Regional Weather Roundup
Issued by NWS

Home | Current Version | Previous Version | Text Only | Print | Product List | Glossary Off
Versions: 1 2 3 4 5 6 7 8 9 10 11 12 13 14 15 16 17 18 19 20 21 22 23 24 25 26 27 28 29 30 31 32 33 34 35 36 37 38 39 40 41 42 43 44 45 46 47 48 49 50

180
ASUS43 KMPX 280010
RWRMN
WEATHER ROUNDUP FOR MINNESOTA
NATIONAL WEATHER SERVICE TWIN CITIES/CHANHASSEN MN
600 PM CST MON FEB 27 2017


NOTE: "FAIR" INDICATES FEW OR NO CLOUDS BELOW 12,000 FEET WITH NO
SIGNIFICANT WEATHER AND/OR OBSTRUCTIONS TO VISIBILITY. N/A MEANS
CURRENT SKY AND/OR WEATHER CONDITIONS ARE NOT AVAILABLE.

MNZ060>063-068>070-280100-
   Twin Cities Metro

CITY           SKY/WX    TMP DP  RH WIND       PRES   REMARKS
TWIN CITIES    MOCLDY    38  23  55 SE8       29.89S
6HR MIN TEMP:  38; 6HR MAX TEMP:  44;

ST PAUL        PTCLDY    38  24  57 SE10      29.91S
CRYSTAL        MOCLDY    39  18  42 SE9       29.87S
BLAINE         MOCLDY    41  21  45 SE9       29.87F
LAKEVILLE      CLOUDY    36  28  75 SE8       29.88F
EDEN PRAIRIE   CLOUDY    38  21  50 S6        29.87S
6HR MIN TEMP:  38; 6HR MAX TEMP:  45;

SOUTH ST PAUL  MOCLDY    39  24  54 S7        29.90S
LAKE ELMO      FAIR      37  23  56 SE7       29.91S
$$
MNZ001>005-007-008-013>017-022>024-027-028-280100-
   Northwest Minnesota

CITY           SKY/WX    TMP DP  RH WIND       PRES   REMARKS
BEMIDJI        PTCLDY    27  18  67 NE5       29.81S WCI  22
HALLOCK        PTCLDY    18  12  79 N10       29.92R WCI   6
ROSEAU         CLOUDY    21  18  86 NW6       29.89R WCI  14
WARROAD        CLOUDY    23  19  86 NW7       29.88S WCI  15
THIEF RVR FALL   N/A    N/A N/A N/A MISG        N/A
CROOKSTON      CLOUDY    25  19  80 N10       29.89R WCI  15
FOSSTON        MOCLDY    25  18  74 N13       29.83R WCI  13
DETROIT LAKES  CLOUDY    32  27  80 E3        29.80S
MOORHEAD       CLOUDY    30  25  80 N9        29.82R WCI  22
PARK RAPIDS    CLOUDY    33  21  61 SE6       29.79R WCI  28
MAHNOMEN       FAIR      28  21  74 N10       29.82R WCI  19
$$
MNZ006-009>011-018-025>026-280100-
   North Central Minnesota

CITY           SKY/WX    TMP DP  RH WIND       PRES   REMARKS
BAUDETTE       CLOUDY    23  11  60 N6        29.86S WCI  16
FLAG ISLAND    LGT SNOW  21  19  93 SW5       29.88R WCI  15
INTL FALLS     CLOUDY    27   8  44 NE5       29.87R WCI  22
6HR MIN TEMP:  22; 6HR MAX TEMP:  30;

WASKISH        CLOUDY    27  14  59 CALM      29.84F
BIG FORK       CLOUDY    30  18  59 CALM      29.84F
LONGVILLE      CLOUDY    32  23  69 CALM      29.81S
GRAND RAPIDS   CLOUDY    32  24  72 SE3       29.84F
CRANE LAKE     CLEAR     27  16  63 CALM      29.90S
ORR            CLOUDY    28  16  59 CALM      29.85S
COOK           MOCLDY    30  19  64 CALM      29.86F
WALKER         CLOUDY    29  20  69 CALM      29.80F
$$
MNZ012-019>021-037-280100-
   Northeast Minnesota

CITY           SKY/WX    TMP DP  RH WIND       PRES   REMARKS
DULUTH         CLOUDY    27  23  85 SE10      29.86S WCI  17
6HR MIN TEMP:  27; 6HR MAX TEMP:  32;

ELY            CLEAR     28  18  64 CALM      29.87R
HIBBING        CLOUDY    30  21  69 SE5       29.84F WCI  25
EVELETH        PTCLDY    32  19  57 CALM      29.86F
DULUTH HARBOR  CLOUDY    30  27  86 E13       29.92S WCI  20
TWO HARBORS    MOCLDY    30  25  80 E6        29.88S WCI  24
SILVER BAY     CLOUDY    27  21  80 E6        29.89S WCI  20
GRAND MARAIS     N/A     27  20  75 NE5       29.95F WCI  22
G MARAIS ARPRT CLEAR     19  16  86 CALM      29.89S
$$
MNZ029>031-032-039>041-046>048-054>057-064-280100-
   West Central Minnesota

CITY           SKY/WX    TMP DP  RH WIND       PRES   REMARKS
FERGUS FALLS   CLOUDY    34  27  75 NE5       29.81S WCI  30
WHEATON        PTCLDY    36  30  80 CALM      29.77R
MORRIS         CLEAR     37  28  70 SE8       29.74S
ALEXANDRIA     PTCLDY    37  25  61 SE7       29.77F
ELBOW LAKE     FAIR      33  27  79 SE7       29.76S WCI  26
WADENA         CLEAR     30  25  80 E5        29.79S WCI  25
GLENWOOD       CLEAR     37  25  60 SE10      29.78S
APPLETON       CLOUDY    45  23  42 S6        29.75R
BENSON         PTCLDY    43  25  49 S13       29.77F
ORTONVILLE     CLOUDY    43  25  49 S6        29.74R
MADISON        CLOUDY    45  30  57 S12       29.74S
WILLMAR        FAIR      39  30  70 SE8       29.81S
$$
MNZ033>034-036-042>043-049>051-058-059-280100-
   Central Minnesota

CITY           SKY/WX    TMP DP  RH WIND       PRES   REMARKS
ST CLOUD       CLOUDY    38  25  59 S10       29.83S
6HR MIN TEMP:  36; 6HR MAX TEMP:  42;

SAUK CENTRE    FAIR      37  28  70 SE12      29.79S
PAYNESVILLE    PTCLDY    38  29  68 SE10      29.81S
AITKIN         CLOUDY    37  23  56 E3        29.81S
PINE RIVER     CLOUDY    30  25  80 SE3       29.85R
BRAINERD       CLOUDY    34  25  69 CALM      29.81S
STAPLES        CLOUDY    34  21  60 CALM      29.80S
LONG PRAIRIE   FAIR      36  27  69 E8        29.79S
LITTLE FALLS   PTCLDY    37  23  56 SE6       29.82R
LITCHFIELD     PTCLDY    39  28  65 SE8       29.83S
BUFFALO        CLOUDY    40  23  51 SE8       29.86S
MAPLE LAKE     CLOUDY    40  28  62 SE7       29.85S
HUTCHINSON     CLOUDY    38  28  67 SE7       29.84F
$$
MNZ037-044-045-052-053-280100-
   East Central Minnesota

CITY           SKY/WX    TMP DP  RH WIND       PRES   REMARKS
PRINCETON      CLOUDY    41  21  45 SE9       29.85S
MORA           CLOUDY    37  19  48 S5        29.87S
CAMBRIDGE      MOCLDY    43  25  49 SE5       29.85S
RUSH CITY      MOCLDY    39  21  50 S8        29.88R
MOOSE LAKE     CLOUDY    37  23  56 CALM      29.84R
HINCKLEY       MOCLDY    39  23  52 S8        29.86S
CLOQUET        CLOUDY    28  21  74 E7        29.86S WCI  21
MCGREGOR       CLOUDY    34  27  75 E5        29.83F WCI  30
$$
MNZ071>073-080-081-089-090-097-098-280100-
   Southwest Minnesota

CITY           SKY/WX    TMP DP  RH WIND       PRES   REMARKS
MONTEVIDEO     PTCLDY    43  27  52 S9G16     29.78F
GRANITE FALLS  MOCLDY    42  29  61 SE10      29.81S
CANBY          CLOUDY    45  26  46 S8        29.76S
MARSHALL       CLOUDY    43  26  51 S10       29.79R
REDWOOD FALLS  CLEAR     38  28  67 SE9       29.81R
OLIVIA         PTCLDY    39  30  70 SE10      29.81R
PIPESTONE      PTCLDY    37  27  65 S8        29.76R
WINDOM         PTCLDY    37  28  70 SE8       29.80S
WORTHINGTON    CLOUDY    37  29  72 SE12      29.78F
JACKSON        CLOUDY    34  30  86 SE7       29.81F WCI  28
TRACY          MOCLDY    41  28  59 S8        29.79R
SLAYTON        PTCLDY    36  30  79 S10       29.79R
$$
MNZ065>067-074>077-082>085-091>093-280100-
   South Central Minnesota

CITY           SKY/WX    TMP DP  RH WIND       PRES   REMARKS
MANKATO          N/A     36  27  69 SE12      29.87S
NEW ULM        PTCLDY    36  27  69 SE10      29.84R
ST JAMES       CLOUDY    34  28  80 E10       29.85S WCI  26
FAIRMONT       CLOUDY    35  30  82 SE9       29.84S WCI  28
GLENCOE        CLOUDY    39  29  68 SE7       29.84S
FARIBAULT      MOCLDY    37  27  65 SE7       29.88F
OWATONNA       CLOUDY    37  27  65 SE10      29.87F
WASECA         PTCLDY    36  32  87 SE10      29.87F
ALBERT LEA     CLOUDY    37  30  75 SE6       29.87S
$$
MNZ078>079-086>088-094>096-280100-
   Southeast Minnesota

CITY           SKY/WX    TMP DP  RH WIND       PRES   REMARKS
ROCHESTER      PTCLDY    35  29  78 SE9       29.90F WCI  28
6HR MIN TEMP:  33; 6HR MAX TEMP:  38;

RED WING       CLOUDY    39  25  56 SE7       29.92S
STANTON        MOCLDY    38  27  63 SE6       29.88F
WINONA         CLEAR     37  30  75 SE3       29.95F
AUSTIN         PTCLDY    36  30  80 E8        29.87F
PRESTON        PTCLDY    39  30  69 SE8       29.92F
$$
ABBREVIATIONS USED IN REMARKS
   TC - TEMPERATURES IN CELSIUS
  WCI - WIND CHILL INDEX
   HX - HEAT INDEX
  VSB - VISIBILITY
$$




USA.gov is the U.S. government's official web portal to all federal, state and local government web resources and services.